Regional Weather Roundup
Issued by NWS

Home | Current Version | Previous Version | Text Only | Print | Product List | Glossary On
Versions: 1 2 3 4 5 6 7 8 9 10 11 12 13 14 15 16 17 18 19 20 21 22 23 24 25 26 27 28 29 30 31 32 33 34 35 36 37 38 39 40 41 42 43 44 45 46 47 48 49 50
000
ASCA44 KEWX 180920
RWRMX

LATIN AMERICA AND CARIBBEAN REGIONAL WEATHER ROUNDUP
NATIONAL WEATHER SERVICE AUSTIN/SAN ANTONIO TX
400 AM CDT SAT APR 18 2015

NOTE: "FAIR" INDICATED FEW OR NO CLOUDS BELOW 12,000 FEET WITH NO
SIGNIFICANT WEATHER AND/OR OBSTRUCTIONS TO VISIBILITY.

BAJA CALIFORNIA

CITY           SKY/WX    TMP DP  RH WIND       PRES   REMARKS
TIJUANA        CLEAR     61  25  25 CALM      30.05F

NORTHWESTERN MEXICO

CITY           SKY/WX    TMP DP  RH WIND       PRES   REMARKS
CD. JUAREZ     CLEAR     52  28  40 CALM      29.95S

NORTHEASTERN MEXICO

CITY           SKY/WX    TMP DP  RH WIND       PRES   REMARKS
MONTERREY      CLOUDY    73  72  94 NE6       29.82F FOG
REYNOSA        MOCLDY    73  72  94 SE3       29.80F
CD. VICTORIA     N/A     75  75 100 NW3       29.81S FOG

WESTERN MEXICO

CITY           SKY/WX    TMP DP  RH WIND       PRES   REMARKS
DEL BAJIO      PTCLDY    59  39  47 N5        30.22S
GUADALAJARA    CLEAR     63  48  59 NW3       30.14S
MAZATLAN       MOCLDY    66  63  88 NW8       29.88F
P. VALLARTA    PTCLDY    73  70  88 CALM      29.88F
ZACATECAS      CLEAR     55  34  44 CALM      30.23F

CENTRAL MEXICO

CITY           SKY/WX    TMP DP  RH WIND       PRES   REMARKS
MEXICO CITY    CLEAR     57  45  62 NE6       30.26F
QUERETARO      PTCLDY    55  45  67 CALM      30.20F
S. LUIS POTOSI MOCLDY    63  43  48 N9        30.16S
TOLUCA         PTCLDY    46  39  76 CALM      30.35

SOUTHERN MEXICO

CITY           SKY/WX    TMP DP  RH WIND       PRES   REMARKS
ACAPULCO       CLEAR     75  73  94 N3        29.85F

YUCATAN PENINSULA

CITY           SKY/WX    TMP DP  RH WIND       PRES   REMARKS
CANCUN         CLEAR     79  73  83 SE14      29.91F
COZUMEL        PTCLDY    72  72 100 SE5       29.91F
MERIDA         CLEAR     77  72  83 SE12      29.82F
TAPACHULA      CLOUDY    77  73  88 CALM      29.87

CENTRAL AMERICA

CITY           SKY/WX    TMP DP  RH WIND       PRES   REMARKS

CARIBBEAN

CITY           SKY/WX    TMP DP  RH WIND       PRES   REMARKS
ARUBA          PTCLDY    79  73  83 E14       29.89S
KINGSTON       PTCLDY    77  70  78 N6        29.94S
NASSAU         PTCLDY    79  73  83 VRB2      30.00F
SAN JUAN       PTCLDY    75  72  88 CALM      30.02R
SANTO DOMINGO  PTCLDY    72  68  88 NE5       30.00S
ST. CROIX      CLOUDY    75  73  94 E6        30.02S
ST. MAARTEN    PTCLDY    79  70  73 E10       30.00S
ST. THOMAS     LGT RAIN  73  72  94 E10       30.03

$$



USA.gov is the U.S. government's official web portal to all federal, state and local government web resources and services.